[[{"header":{"parameterUnit":"m.s-1","parameterCategory":1,"la1":30.2992,"la2":30.254,"lo1":-89.0895,"lo2":-89.0443,"dy":0.0025,"dx":0.0025,"nx":19,"ny":19,"refTime":"2026-04-05T21:00:00:Z","depth":0,"parameterNumber":2,"parameterNumberName":"U-component_of_WINDS"},"data":[0,0,0,-4.4003,-4.4007,-4.4201,-4.4202,-4.4484,-4.4487,0,0,0,0,0,0,0,0,0,0,0,-4.3969,-4.3971,-4.4002,-4.4008,-4.4201,-4.4202,-4.4484,-4.4487,0,0,0,0,0,0,0,0,0,0,0,-4.3967,-4.3971,-4.3974,-4.4009,-4.4201,-4.4202,-4.4483,-4.4324,0,0,0,0,0,0,0,0,0,0,-4.413,-4.4122,-4.397,-4.3974,-4.401,-4.4201,-4.4202,-4.4316,-4.4334,-4.4412,0,-4.4489,0,-4.4493,-4.4508,-4.4509,0,0,0,-4.399,-4.4107,-4.4138,-4.3975,-4.4012,-4.4201,-4.4109,-4.4325,-4.4346,-4.4436,-4.4493,-4.4502,-4.4497,-4.451,-4.4512,-4.5021,-4.5024,0,0,-4.398,-4.4016,-4.4124,-4.4152,-4.4127,-4.4103,-4.4115,-4.4337,-4.4401,-4.4494,-4.4508,-4.4502,-4.4512,-4.4515,-4.5018,-4.5022,0,0,0,-4.3961,-4.4009,-4.4034,-4.4142,-4.4174,-4.4109,-4.4123,-4.4391,-4.4396,-4.4511,-4.4505,-4.4514,-4.4518,-4.5015,-4.502,-4.5214,0,0,0,-4.3953,-4.3998,-4.403,-4.4054,-4.4171,-4.4286,-4.4173,-4.4381,-4.4404,-4.4504,-4.4514,-4.4521,-4.5011,-4.5017,-4.5201,-4.5301,0,0,0,-4.3948,-4.3997,-4.4033,-4.4056,-4.414,-4.4281,-4.4298,-4.4385,-4.4402,-4.451,-4.4522,-4.5009,-4.5016,-4.519,-4.5282,-4.5446,0,0,0,-4.3953,-4.4204,-4.4037,-4.4315,-4.4139,-4.44,-4.4296,-4.4488,-4.4603,-4.4516,-4.5012,-4.5019,-4.5186,-4.527,-4.5434,-4.5593,-4.5662,0,0,-4.429,-4.4246,-4.4407,-4.4262,-4.4562,-4.4367,-4.4694,-4.4765,-4.4741,-4.4929,-4.494,-4.5205,-4.5281,-4.5444,-4.6031,-4.6087,0,0,0,-4.4526,-4.4642,-4.4713,-4.4825,-4.4884,-4.4942,-4.4958,-4.4983,-4.514,-4.4846,-4.5306,-4.535,-4.5444,-4.5518,-4.5565,-4.5644,-4.5054,-4.5053,-4.5053,-4.506,-4.5014,-4.5276,-4.5253,-4.5362,-4.5374,-4.5457,-4.5492,-4.5416,-4.5525,-4.5582,-4.5944,-4.6033,-4.6068,-4.615,-4.566,-4.5661,-4.5661,-4.5662,-4.5551,-4.5709,-4.5597,-4.5812,-4.5761,-4.594,-4.5959,-4.5898,-4.6056,-4.5899,-4.5979,-4.5814,-4.613,-4.6199,-4.5676,-4.5674,-4.5672,-4.567,-4.5669,-4.5898,-4.5966,-4.5991,-4.6144,-4.6266,-4.6232,-4.6388,-4.6336,-4.6287,-4.6367,-4.642,-4.6417,-4.6408,-4.6395,-4.6396,-4.6398,-4.6399,-4.64,-4.64,-4.625,-4.6271,-4.641,-4.6491,-4.6553,-4.6628,-4.6638,-4.6697,-4.675,-4.6699,-4.6699,-4.6612,-4.6168,-4.6059,-4.642,-4.6416,-4.6414,-4.6412,-4.6411,-4.6771,-4.6643,-4.6858,-4.6921,-4.7008,-4.7132,-4.706,-4.7185,-4.7226,-4.7304,-4.7197,-4.6877,-4.6828,-4.6791,-4.67,-4.7206,-4.7206,-4.7206,-4.7206,-4.7065,-4.7033,-4.724,-4.7342,-4.7436,-4.7392,-4.7633,-4.7642,-4.763,-4.7652,-4.757,-4.7444,-4.7407,-4.738,-4.733,-4.7245,-4.7877,-4.7878,-4.7879,-4.7383,-4.7357,-4.7576,-4.7562,-4.7625,-4.768,-4.7905,-4.8025,-4.7984,-4.7905,-4.7667,-4.7639,-4.7435,-4.7371,-4.7291,-4.7214,-4.7057,0,0]},{"header":{"parameterUnit":"m.s-1","parameterCategory":1,"la1":30.2992,"la2":30.254,"lo1":-89.0895,"lo2":-89.0443,"dy":0.0025,"dx":0.0025,"nx":19,"ny":19,"refTime":"2026-04-05T21:00:00:Z","depth":0,"parameterNumber":3,"parameterNumberName":"V-component_of_WINDS"},"data":[0,0,0,-4.818,-4.8183,-4.8327,-4.8327,-4.8526,-4.8527,0,0,0,0,0,0,0,0,0,0,0,-4.815,-4.8152,-4.818,-4.8184,-4.8326,-4.8327,-4.8525,-4.8527,0,0,0,0,0,0,0,0,0,0,0,-4.815,-4.8152,-4.8154,-4.8184,-4.8326,-4.8327,-4.8525,-4.8411,0,0,0,0,0,0,0,0,0,0,-4.8269,-4.8255,-4.8151,-4.8154,-4.8185,-4.8326,-4.8327,-4.8405,-4.8418,-4.8468,0,-4.8519,0,-4.8527,-4.8542,-4.8543,0,0,0,-4.8174,-4.8244,-4.8271,-4.8154,-4.8187,-4.8326,-4.8259,-4.8412,-4.8427,-4.8486,-4.8522,-4.8529,-4.853,-4.8543,-4.8544,-4.8873,-4.8875,0,0,-4.8166,-4.8183,-4.8261,-4.8281,-4.8263,-4.8255,-4.8264,-4.842,-4.846,-4.8523,-4.8533,-4.8533,-4.8545,-4.8547,-4.8871,-4.8874,0,0,0,-4.815,-4.8178,-4.82,-4.8274,-4.8298,-4.8259,-4.827,-4.8453,-4.8459,-4.8535,-4.8536,-4.8546,-4.8549,-4.8869,-4.8872,-4.8987,0,0,0,-4.8145,-4.8168,-4.8198,-4.8209,-4.8296,-4.8378,-4.83,-4.8449,-4.8466,-4.8535,-4.8546,-4.8551,-4.8867,-4.8871,-4.8979,-4.9039,0,0,0,-4.8137,-4.8167,-4.8192,-4.821,-4.8272,-4.8375,-4.839,-4.8452,-4.8467,-4.8543,-4.8551,-4.8866,-4.887,-4.8972,-4.9027,-4.9129,0,0,0,-4.8133,-4.8294,-4.8194,-4.8373,-4.8271,-4.8446,-4.8389,-4.8518,-4.8598,-4.8547,-4.8867,-4.8872,-4.897,-4.902,-4.9122,-4.9218,-4.926,0,0,-4.8345,-4.832,-4.8423,-4.8339,-4.8536,-4.8423,-4.8636,-4.8692,-4.8683,-4.881,-4.8817,-4.8982,-4.9027,-4.9128,-4.9489,-4.9523,0,0,0,-4.8496,-4.8571,-4.8619,-4.8696,-4.8743,-4.8786,-4.8808,-4.8828,-4.8935,-4.8753,-4.9046,-4.9072,-4.913,-4.9176,-4.9204,-4.9252,-4.8894,-4.8893,-4.8893,-4.8821,-4.8801,-4.897,-4.8966,-4.904,-4.9059,-4.9117,-4.9146,-4.9105,-4.9174,-4.9212,-4.9434,-4.9487,-4.9509,-4.9559,-4.9261,-4.9261,-4.9262,-4.9262,-4.9129,-4.9231,-4.9169,-4.9312,-4.9288,-4.9406,-4.9428,-4.9394,-4.9499,-4.9405,-4.9455,-4.9354,-4.9546,-4.9589,-4.9271,-4.9269,-4.9268,-4.9267,-4.9267,-4.934,-4.9385,-4.9406,-4.9511,-4.9594,-4.9583,-4.9686,-4.966,-4.9637,-4.9687,-4.9722,-4.972,-4.9714,-4.9705,-4.9706,-4.9707,-4.9708,-4.9708,-4.9709,-4.955,-4.957,-4.9661,-4.9721,-4.9765,-4.9819,-4.9836,-4.9877,-4.9916,-4.9889,-4.9889,-4.9839,-4.9569,-4.9501,-4.9721,-4.9718,-4.9717,-4.9716,-4.9715,-4.987,-4.9793,-4.9933,-4.9977,-5.0043,-5.0125,-5.009,-5.0175,-5.0205,-5.0256,-5.0194,-4.9999,-4.9971,-4.9948,-4.9892,-5.0199,-5.0199,-5.0199,-5.0199,-5.0048,-5.003,-5.0166,-5.0237,-5.0303,-5.0284,-5.0439,-5.0453,-5.0454,-5.047,-5.0422,-5.0345,-5.0323,-5.0308,-5.0277,-5.0224,-5.0609,-5.061,-5.061,-5.0243,-5.023,-5.0369,-5.037,-5.0419,-5.046,-5.0604,-5.0685,-5.067,-5.0626,-5.0482,-5.0465,-5.034,-5.0301,-5.0255,-5.0209,-5.0111,0,0]}]]